Location: Lafig�re
(44.4503°N, 4.0357°E)
Time: 05:49:53
(UTC+00:00)

Transit 4A - Visible Passes

Search period start: 28 January 2021 00:00
Search period end: 07 February 2021 00:00
Orbit: 864 x 980 km, 66.8° (Epoch: 27 January)

Date Brightness Start Highest point End Pass type
(mag) Time Alt. Az. Time Alt. Az. Time Alt. Az.
28 Jan 8.4 18:17:35 10° SW 18:23:57 65° NW 18:30:18 10° NNE visible
28 Jan 10.1 20:07:21 10° WNW 20:11:36 18° NNW 20:13:56 15° N visible
29 Jan 8.9 18:27:15 10° WSW 18:33:24 47° NW 18:39:32 10° NNE visible
29 Jan 10.3 20:18:03 10° WNW 20:21:26 15° NNW 20:23:25 13° N visible
30 Jan 9.4 18:37:08 10° WSW 18:42:56 35° NW 18:48:43 10° NNE visible
30 Jan 10.4 20:29:03 10° NW 20:31:22 12° NNW 20:32:50 11° N visible
31 Jan 9.7 18:47:14 10° W 18:52:34 27° NW 18:57:52 10° NNE visible
31 Jan 10.5 20:40:52 10° NNW 20:41:21 10° NNW 20:41:50 10° N visible
01 Feb 10.0 18:57:33 10° W 19:02:16 21° NW 19:06:57 10° NNE visible
02 Feb 8.6 17:17:58 10° SW 17:24:16 58° NW 17:30:33 10° NNE visible
02 Feb 10.2 19:08:06 10° WNW 19:12:04 17° NNW 19:15:59 10° N visible
03 Feb 9.1 17:27:43 10° WSW 17:33:45 42° NW 17:39:46 10° NNE visible
03 Feb 10.3 19:18:55 10° NW 19:21:56 13° NNW 19:24:56 10° N visible
04 Feb 9.5 17:37:40 10° WSW 17:43:19 32° NW 17:48:56 10° NNE visible
04 Feb 10.4 19:30:04 10° NW 19:31:53 11° NNW 19:33:41 10° N visible
05 Feb 9.8 17:47:51 10° W 17:52:58 24° NW 17:58:03 10° NNE visible
06 Feb 10.1 17:58:15 10° WNW 18:02:42 19° NW 18:07:07 10° N visible
